Location: Invercargill
(46.4000°S, 168.3500°E)
Time: 12:03:39
(UTC+12:00)

ISS - Visible Passes

Search period start: 27 May 2019 00:00
Search period end: 06 June 2019 00:00
Orbit: 408 x 418 km, 51.6° (Epoch: 27 May)

Date Brightness Start Highest point End Pass type
(mag) Time Alt. Az. Time Alt. Az. Time Alt. Az.
27 May -1.6 06:09:29 15° N 06:11:29 26° NE 06:14:23 10° E visible
28 May -0.8 05:22:52 15° ENE 05:22:52 15° ENE 05:24:24 10° E visible
28 May -3.8 06:55:46 15° WNW 06:58:30 89° NE 07:01:55 10° ESE visible
29 May -3.3 06:08:53 57° NNE 06:09:03 58° NNE 06:12:25 10° ESE visible
30 May -0.8 05:21:49 17° E 05:21:49 17° E 05:22:49 10° ESE visible
30 May -3.5 06:54:40 26° W 06:56:17 51° SSW 06:59:38 10° ESE visible
31 May -3.1 06:07:27 50° SE 06:07:27 50° SE 06:10:09 10° ESE visible
31 May -2.7 07:40:39 10° WSW 07:43:47 33° S 07:46:55 10° ESE visible
01 Jun -0.6 05:20:08 14° ESE 05:20:08 14° ESE 05:20:39 10° ESE visible
01 Jun -2.9 06:52:58 27° SW 06:54:08 36° S 06:57:20 10° ESE visible
02 Jun -2.3 06:05:34 32° SSE 06:05:34 32° SSE 06:07:48 10° ESE visible
02 Jun -2.7 07:38:32 10° WSW 07:41:41 33° S 07:44:49 10° ESE visible
03 Jun -0.4 05:18:05 11° ESE 05:18:05 11° ESE 05:18:17 10° ESE visible
03 Jun -2.7 06:50:56 26° SW 06:52:00 32° S 06:55:08 10° ESE visible
04 Jun -2.0 06:03:25 27° SSE 06:03:25 27° SSE 06:05:29 10° ESE visible
04 Jun -3.0 07:36:14 10° WSW 07:39:31 41° SSE 07:42:45 10° E visible
05 Jun -0.3 05:15:51 10° ESE 05:15:51 10° ESE 05:15:52 10° ESE visible
05 Jun -2.7 06:48:42 27° SSW 06:49:50 35° S 06:53:01 10° ESE visible
